Time,TemperatureF,DewpointF,PressureIn,WindDirection,WindDirectionDegrees,WindSpeedMPH,WindSpeedGustMPH,Humidity,HourlyPrecipIn,Conditions,Clouds,dailyrainin,SolarRadiationWatts/m^2,SoftwareType,DateUTC
2013-08-20 00:01:00,53.0,52.0,-100.00,East,96,0.0,3.0,95,0.00,,,0.06,0.000000,,2013-08-20 07:01:00,
2013-08-20 00:11:00,53.0,52.0,-100.00,East,96,0.0,3.0,95,0.00,,,0.06,0.000000,,2013-08-20 07:11:00,
2013-08-20 00:21:00,53.0,52.0,-100.00,East,96,0.0,3.0,95,0.00,,,0.06,0.000000,,2013-08-20 07:21:00,
2013-08-20 00:31:00,53.0,52.0,-100.00,East,96,0.0,3.0,95,0.00,,,0.06,0.000000,,2013-08-20 07:31:00,
2013-08-20 00:52:00,54.0,52.0,-100.00,SE,127,0.0,4.0,94,0.00,,,0.06,0.000000,,2013-08-20 07:52:00,
2013-08-20 01:02:00,54.0,52.0,-100.00,SE,127,0.0,4.0,94,0.00,,,0.06,0.000000,,2013-08-20 08:02:00,
2013-08-20 01:11:00,54.0,52.0,-100.00,SE,127,0.0,4.0,94,0.00,,,0.06,0.000000,,2013-08-20 08:11:00,
2013-08-20 01:21:00,54.0,52.0,-100.00,SE,127,0.0,4.0,94,0.00,,,0.06,0.000000,,2013-08-20 08:21:00,
2013-08-20 01:31:00,54.0,52.0,-100.00,SE,127,0.0,4.0,94,0.00,,,0.06,0.000000,,2013-08-20 08:31:00,
2013-08-20 01:33:00,55.0,52.0,-100.00,East,90,1.0,4.0,89,0.00,,,0.06,0.000000,,2013-08-20 08:33:00,
2013-08-20 01:52:00,55.0,52.0,-100.00,East,90,1.0,4.0,89,0.00,,,0.06,0.000000,,2013-08-20 08:52:00,
2013-08-20 02:01:00,55.0,52.0,-100.00,East,90,1.0,4.0,89,0.00,,,0.06,0.000000,,2013-08-20 09:01:00,
2013-08-20 02:11:00,55.0,52.0,-100.00,East,90,1.0,4.0,89,0.00,,,0.06,0.000000,,2013-08-20 09:11:00,
2013-08-20 02:21:00,55.0,52.0,-100.00,East,90,1.0,4.0,89,0.00,,,0.06,0.000000,,2013-08-20 09:21:00,
2013-08-20 02:53:00,55.0,52.0,-100.00,ENE,67,1.0,4.0,88,0.00,,,0.06,0.000000,,2013-08-20 09:53:00,
2013-08-20 03:03:00,55.0,52.0,-100.00,ENE,67,1.0,4.0,88,0.00,,,0.06,0.000000,,2013-08-20 10:03:00,
2013-08-20 03:12:00,55.0,52.0,-100.00,ENE,67,1.0,4.0,88,0.00,,,0.06,0.000000,,2013-08-20 10:12:00,
2013-08-20 03:22:00,55.0,52.0,-100.00,ENE,67,1.0,4.0,88,0.00,,,0.06,0.000000,,2013-08-20 10:22:00,
2013-08-20 03:32:00,55.0,52.0,-100.00,ENE,67,1.0,4.0,88,0.00,,,0.06,0.000000,,2013-08-20 10:32:00,
2013-08-20 03:52:00,55.0,51.0,-100.00,ENE,65,1.0,3.0,86,0.00,,,-99.99,0.000000,,2013-08-20 10:52:00,
2013-08-20 04:02:00,55.0,51.0,-100.00,ENE,65,1.0,3.0,86,0.00,,,-99.99,0.000000,,2013-08-20 11:02:00,
2013-08-20 04:11:00,55.0,51.0,-100.00,ENE,65,1.0,3.0,86,0.00,,,-99.99,0.000000,,2013-08-20 11:11:00,
2013-08-20 04:21:00,55.0,51.0,-100.00,ENE,65,1.0,3.0,86,0.00,,,-99.99,0.000000,,2013-08-20 11:21:00,
2013-08-20 04:32:00,55.0,51.0,-100.00,ENE,65,1.0,3.0,86,0.00,,,-99.99,0.000000,,2013-08-20 11:32:00,
2013-08-20 04:52:00,54.0,50.0,-100.00,East,92,2.0,6.0,85,0.00,,,0.06,0.000000,,2013-08-20 11:52:00,
2013-08-20 05:01:00,54.0,50.0,-100.00,East,92,2.0,6.0,85,0.00,,,0.06,0.000000,,2013-08-20 12:01:00,
2013-08-20 05:12:00,54.0,50.0,-100.00,East,92,2.0,6.0,85,0.00,,,0.06,0.000000,,2013-08-20 12:12:00,
2013-08-20 05:21:00,54.0,50.0,-100.00,East,92,2.0,6.0,85,0.00,,,0.06,0.000000,,2013-08-20 12:21:00,
2013-08-20 05:31:00,54.0,50.0,-100.00,East,92,2.0,6.0,85,0.00,,,0.06,0.000000,,2013-08-20 12:31:00,
2013-08-20 05:52:00,53.0,49.0,-100.00,East,82,3.0,7.0,85,0.00,,,0.06,0.000000,,2013-08-20 12:52:00,
2013-08-20 06:01:00,53.0,49.0,-100.00,East,82,3.0,7.0,85,0.00,,,0.06,0.000000,,2013-08-20 13:01:00,
2013-08-20 06:11:00,53.0,49.0,-100.00,East,82,3.0,7.0,85,0.00,,,0.06,0.000000,,2013-08-20 13:11:00,
2013-08-20 06:21:00,53.0,49.0,-100.00,East,82,3.0,7.0,85,0.00,,,0.06,0.000000,,2013-08-20 13:21:00,
2013-08-20 06:32:00,53.0,49.0,-100.00,East,82,3.0,7.0,85,0.00,,,0.06,0.000000,,2013-08-20 13:32:00,
2013-08-20 06:52:00,51.0,48.0,-100.00,East,94,2.0,6.0,90,0.00,,,0.05,2.000000,,2013-08-20 13:52:00,
2013-08-20 07:02:00,51.0,48.0,-100.00,East,94,2.0,6.0,90,0.00,,,0.05,2.000000,,2013-08-20 14:02:00,
2013-08-20 07:11:00,51.0,48.0,-100.00,East,94,2.0,6.0,90,0.00,,,0.05,2.000000,,2013-08-20 14:11:00,
2013-08-20 07:21:00,51.0,48.0,-100.00,East,94,2.0,6.0,90,0.00,,,0.05,2.000000,,2013-08-20 14:21:00,
2013-08-20 07:32:00,51.0,48.0,-100.00,East,94,2.0,6.0,90,0.00,,,0.05,2.000000,,2013-08-20 14:32:00,
2013-08-20 07:33:00,54.0,49.0,-100.00,East,80,2.0,6.0,84,0.00,,,0.05,60.000000,,2013-08-20 14:33:00,
2013-08-20 07:52:00,54.0,49.0,-100.00,East,80,2.0,6.0,84,0.00,,,0.05,60.000000,,2013-08-20 14:52:00,
2013-08-20 08:02:00,54.0,49.0,-100.00,East,80,2.0,6.0,84,0.00,,,0.05,60.000000,,2013-08-20 15:02:00,
2013-08-20 08:11:00,54.0,49.0,-100.00,East,80,2.0,6.0,84,0.00,,,0.05,60.000000,,2013-08-20 15:11:00,
2013-08-20 08:22:00,54.0,49.0,-100.00,East,80,2.0,6.0,84,0.00,,,0.05,60.000000,,2013-08-20 15:22:00,
2013-08-20 08:33:00,58.0,50.0,-100.00,NE,48,2.0,8.0,76,0.00,,,0.05,222.000000,,2013-08-20 15:33:00,
2013-08-20 08:53:00,58.0,50.0,-100.00,NE,48,2.0,8.0,76,0.00,,,0.05,222.000000,,2013-08-20 15:53:00,
2013-08-20 09:04:00,58.0,50.0,-100.00,NE,48,2.0,8.0,76,0.00,,,0.05,222.000000,,2013-08-20 16:04:00,
2013-08-20 09:15:00,58.0,50.0,-100.00,NE,48,2.0,8.0,76,0.00,,,0.05,222.000000,,2013-08-20 16:15:00,
2013-08-20 09:30:00,-999.0,-99.9,-100.00,NE,48,2.0,8.0,76,0.00,,,0.05,222.000000,,2013-08-20 16:30:00,
2013-08-20 09:33:00,63.0,54.0,-100.00,East,86,2.0,5.0,72,0.00,,,0.05,393.000000,,2013-08-20 16:33:00,
2013-08-20 10:24:00,63.0,54.0,-100.00,East,86,2.0,5.0,72,0.00,,,0.05,393.000000,,2013-08-20 17:24:00,
2013-08-20 10:33:00,66.0,54.0,-100.00,NNE,33,2.0,6.0,65,0.00,,,0.05,556.000000,,2013-08-20 17:33:00,
2013-08-20 11:12:00,66.0,54.0,-100.00,NNE,33,2.0,6.0,65,0.00,,,0.05,556.000000,,2013-08-20 18:12:00,
2013-08-20 11:22:00,66.0,54.0,-100.00,NNE,33,2.0,6.0,65,0.00,,,0.05,556.000000,,2013-08-20 18:22:00,
2013-08-20 12:21:00,70.0,52.0,-100.00,WNW,293,3.0,8.0,52,0.00,,,0.04,658.000000,,2013-08-20 19:21:00,
2013-08-20 12:32:00,70.0,52.0,-100.00,WNW,293,3.0,8.0,52,0.00,,,0.04,658.000000,,2013-08-20 19:32:00,
2013-08-20 13:12:00,72.0,48.0,-100.00,West,265,4.0,11.0,43,0.00,,,0.00,771.000000,,2013-08-20 20:12:00,
2013-08-20 15:53:00,74.0,50.0,-100.00,West,269,5.0,14.0,43,-99.99,,,0.00,737.000000,,2013-08-20 22:53:00,
2013-08-20 16:03:00,74.0,50.0,-100.00,West,269,5.0,14.0,43,-99.99,,,0.00,737.000000,,2013-08-20 23:03:00,
2013-08-20 18:11:00,70.0,48.0,-100.00,West,268,4.0,13.0,46,-99.99,,,0.00,488.000000,,2013-08-21 01:11:00,
2013-08-20 18:21:00,70.0,48.0,-100.00,West,268,4.0,13.0,46,-99.99,,,0.00,488.000000,,2013-08-21 01:21:00,
2013-08-20 18:32:00,70.0,48.0,-100.00,West,268,4.0,13.0,46,-99.99,,,0.00,488.000000,,2013-08-21 01:32:00,
2013-08-20 18:52:00,69.0,50.0,-100.00,WNW,282,3.0,10.0,51,0.00,,,0.00,324.000000,,2013-08-21 01:52:00,
2013-08-20 19:02:00,69.0,50.0,-100.00,WNW,282,3.0,10.0,51,0.00,,,0.00,324.000000,,2013-08-21 02:02:00,
2013-08-20 19:12:00,69.0,50.0,-100.00,WNW,282,3.0,10.0,51,0.00,,,0.00,324.000000,,2013-08-21 02:12:00,
2013-08-20 19:33:00,64.0,47.0,-100.00,NNW,338,3.0,10.0,54,0.00,,,0.00,154.000000,,2013-08-21 02:33:00,
2013-08-20 19:52:00,64.0,47.0,-100.00,NNW,338,3.0,10.0,54,0.00,,,0.00,154.000000,,2013-08-21 02:52:00,
2013-08-20 20:02:00,64.0,47.0,-100.00,NNW,338,3.0,10.0,54,0.00,,,0.00,154.000000,,2013-08-21 03:02:00,
2013-08-20 20:12:00,64.0,47.0,-100.00,NNW,338,3.0,10.0,54,0.00,,,0.00,154.000000,,2013-08-21 03:12:00,
2013-08-20 20:22:00,64.0,47.0,-100.00,NNW,338,3.0,10.0,54,0.00,,,0.00,154.000000,,2013-08-21 03:22:00,
2013-08-20 20:33:00,60.0,49.0,-100.00,WSW,258,0.0,10.0,67,0.00,,,0.00,12.000000,,2013-08-21 03:33:00,
2013-08-20 20:55:00,60.0,49.0,-100.00,WSW,258,0.0,10.0,67,0.00,,,0.00,12.000000,,2013-08-21 03:55:00,
2013-08-20 21:04:00,60.0,49.0,-100.00,WSW,258,0.0,10.0,67,0.00,,,0.00,12.000000,,2013-08-21 04:04:00,
2013-08-20 21:13:00,60.0,49.0,-100.00,WSW,258,0.0,10.0,67,0.00,,,0.00,12.000000,,2013-08-21 04:13:00,
2013-08-20 21:24:00,60.0,49.0,-100.00,WSW,258,0.0,10.0,67,0.00,,,0.00,12.000000,,2013-08-21 04:24:00,
2013-08-20 21:33:00,55.0,48.0,-100.00,ESE,109,0.0,2.0,78,0.00,,,0.00,0.000000,,2013-08-21 04:33:00,
2013-08-20 21:54:00,55.0,48.0,-100.00,ESE,109,0.0,2.0,78,0.00,,,0.00,0.000000,,2013-08-21 04:54:00,
2013-08-20 22:02:00,55.0,48.0,-100.00,ESE,109,0.0,2.0,78,0.00,,,0.00,0.000000,,2013-08-21 05:02:00,
2013-08-20 22:12:00,55.0,48.0,-100.00,ESE,109,0.0,2.0,78,0.00,,,0.00,0.000000,,2013-08-21 05:12:00,
2013-08-20 22:22:00,55.0,48.0,-100.00,ESE,109,0.0,2.0,78,0.00,,,0.00,0.000000,,2013-08-21 05:22:00,
2013-08-20 22:52:00,52.0,48.0,-100.00,NNE,17,0.0,1.0,87,0.00,,,0.00,0.000000,,2013-08-21 05:52:00,
2013-08-20 23:02:00,52.0,48.0,-100.00,NNE,17,0.0,1.0,87,0.00,,,0.00,0.000000,,2013-08-21 06:02:00,
2013-08-20 23:12:00,52.0,48.0,-100.00,NNE,17,0.0,1.0,87,0.00,,,0.00,0.000000,,2013-08-21 06:12:00,
2013-08-20 23:22:00,52.0,48.0,-100.00,NNE,17,0.0,1.0,87,0.00,,,0.00,0.000000,,2013-08-21 06:22:00,
2013-08-20 23:32:00,52.0,48.0,-100.00,NNE,17,0.0,1.0,87,0.00,,,0.00,0.000000,,2013-08-21 06:32:00,
2013-08-20 23:52:00,51.0,49.0,-100.00,North,11,0.0,1.0,93,0.00,,,0.00,0.000000,,2013-08-21 06:52:00,